CW2404 Weather Reports


Display with metric or nautical units.
time (UTC)temp
F
wind
direction
speed
MPH
gust
MPH
rain 1hr
in
rain 24hr
in
rain mn
in
humidity
%
barometer
mb
20260507193046 58 301 13.0 0.0 0.00 0.00 0.49 49 1002.1
20260507192009 59 315 9.0 0.0 0.00 0.00 0.49 44 1002.3
20260507191451 61 254 8.0 0.0 0.00 0.00 0.49 40 1002.3
20260507191023 61 277 6.0 0.0 0.00 0.00 0.49 38 1002.4
20260507190434 60 290 3.0 0.0 0.00 0.00 0.49 42 1002.4
20260507190014 60 105 0.0 0.0 0.00 0.00 0.49 49 1002.4
20260507185449 60 105 0.0 0.0 0.00 0.00 0.49 45 1002.5
20260507185004 60 105 0.0 0.0 0.00 0.00 0.49 46 1002.5
20260507184450 60 105 0.0 0.0 0.00 0.00 0.49 47 1002.5
20260507183015 59 105 0.0 0.0 0.00 0.00 0.49 50 1002.6
20260507182452 59 105 0.0 0.0 0.00 0.00 0.49 41 1002.9
20260507182014 59 105 0.0 0.0 0.00 0.00 0.49 48 1002.9
20260507181440 60 105 0.0 0.0 0.00 0.00 0.49 45 1002.9
20260507181021 59 105 0.0 0.0 0.00 0.00 0.49 48 1003.0
20260507175455 60 289 6.0 0.0 0.00 0.00 0.49 45 1002.9
20260507175019 59 262 8.0 0.0 0.00 0.00 0.49 46 1002.9
20260507172950 61 261 8.0 0.0 0.00 0.00 0.49 45 1002.9
20260507172530 60 288 8.0 0.0 0.00 0.00 0.49 49 1003.0
20260507171951 61 261 7.0 0.0 0.00 0.00 0.49 47 1003.0
20260507171441 61 287 5.0 0.0 0.00 0.00 0.49 49 1003.0
20260507171001 62 255 6.0 0.0 0.00 0.00 0.49 49 1003.0
20260507170452 61 218 7.0 0.0 0.00 0.00 0.49 49 1003.0
20260507165941 61 215 6.0 0.0 0.00 0.00 0.49 49 1003.0
20260507165017 57 186 5.0 0.0 0.00 0.00 0.49 59 1003.3
20260507164522 57 284 4.0 0.0 0.00 0.00 0.49 58 1003.3
20260507163952 57 321 6.0 0.0 0.00 0.00 0.49 59 1003.5
20260507163532 57 337 6.0 0.0 0.00 0.00 0.49 58 1003.5
20260507162958 58 255 6.0 0.0 0.00 0.00 0.49 54 1003.5
20260507162528 59 287 5.0 0.0 0.00 0.00 0.49 53 1003.6
20260507161500 58 63 4.0 0.0 0.00 0.00 0.49 57 1003.6
20260507160938 58 34 3.0 0.0 0.00 0.00 0.49 59 1003.9
20260507160518 58 106 3.0 0.0 0.00 0.00 0.49 56 1003.9
20260507160012 59 348 2.0 0.0 0.00 0.00 0.49 53 1003.9
20260507155010 58 285 2.0 0.0 0.00 0.00 0.49 52 1004.0
20260507154447 58 244 1.0 0.0 0.00 0.00 0.49 54 1004.0
20260507154028 58 219 2.0 0.0 0.00 0.00 0.49 54 1004.1
20260507153455 58 333 2.0 0.0 0.00 0.00 0.49 51 1004.1
20260507153043 58 289 3.0 0.0 0.00 0.00 0.49 50 1004.1
20260507152505 58 285 2.0 0.0 0.00 0.00 0.49 53 1004.3
20260507151958 58 312 1.0 0.0 0.00 0.00 0.49 55 1004.3
20260507151546 57 121 2.0 0.0 0.00 0.00 0.49 54 1004.3
20260507151003 56 22 1.0 0.0 0.00 0.00 0.49 56 1004.5
20260507150453 56 67 0.0 0.0 0.00 0.00 0.49 59 1004.5
20260507150020 57 105 1.0 0.0 0.00 0.00 0.49 59 1004.5
20260507145509 54 11 2.0 0.0 0.00 0.00 0.49 61 1004.5
20260507144954 55 26 2.0 0.0 0.00 0.00 0.49 62 1004.5
20260507144436 55 25 1.0 0.0 0.00 0.00 0.49 64 1004.5
20260507144005 55 17 1.0 0.0 0.00 0.00 0.49 69 1004.6
20260507143438 54 353 1.0 0.0 0.00 0.00 0.49 71 1004.6
20260507143014 54 3 2.0 0.0 0.00 0.00 0.49 71 1004.6
20260507142500 54 19 1.0 0.0 0.00 0.00 0.49 70 1004.6
20260507142027 53 360 1.0 0.0 0.00 0.00 0.49 70 1004.6
20260507141508 53 350 2.0 0.0 0.00 0.00 0.49 70 1004.6
20260507140948 53 318 3.0 0.0 0.00 0.00 0.49 71 1004.6
20260507140437 52 346 4.0 0.0 0.00 0.00 0.49 72 1004.6
20260507140014 52 332 5.0 0.0 0.00 0.00 0.49 72 1004.6
20260507135452 51 348 4.0 0.0 0.00 0.00 0.49 74 1004.6
20260507134944 52 339 3.0 0.0 0.00 0.00 0.49 77 1004.6
20260507134538 52 339 3.0 0.0 0.00 0.00 0.49 77 1004.6
20260507133959 52 325 5.0 0.0 0.00 0.00 0.49 77 1004.6
20260507133444 51 348 6.0 0.0 0.00 0.00 0.49 77 1004.6
20260507133027 51 332 7.0 0.0 0.00 0.00 0.49 78 1004.6
20260507132449 51 336 7.0 0.0 0.00 0.00 0.49 77 1004.6
20260507131932 51 317 9.0 0.0 0.00 0.00 0.49 78 1004.6
20260507131503 51 296 10.0 0.0 0.00 0.00 0.49 78 1004.6
20260507130947 51 320 11.0 0.0 0.00 0.00 0.49 77 1004.8
20260507130523 51 303 11.0 0.0 0.00 0.00 0.49 77 1004.8
20260507130018 50 315 10.0 0.0 0.00 0.00 0.49 78 1004.8
20260507125503 50 291 9.0 0.0 0.00 0.00 0.49 79 1004.9
20260507124944 50 317 9.0 0.0 0.00 0.00 0.49 79 1004.9
20260507124502 50 305 8.0 0.0 0.00 0.00 0.49 79 1004.9
20260507123938 50 299 9.0 0.0 0.00 0.00 0.49 79 1005.1
20260507123523 50 302 9.0 0.0 0.00 0.00 0.49 79 1005.1
20260507122955 50 292 10.0 0.0 0.00 0.00 0.49 80 1005.1
20260507122516 50 296 11.0 0.0 0.00 0.00 0.49 78 1004.6
20260507122002 49 316 11.0 0.0 0.00 0.00 0.49 78 1004.6
20260507121526 49 258 10.0 0.0 0.00 0.00 0.49 78 1004.6
20260507120932 49 313 9.0 0.0 0.00 0.00 0.49 79 1004.5
20260507120506 49 325 9.0 0.0 0.00 0.00 0.49 79 1004.5
20260507114500 49 294 7.0 0.0 0.00 0.00 0.49 79 1004.6
20260507113942 49 294 7.0 0.0 0.00 0.00 0.49 80 1004.5
20260507113529 49 305 6.0 0.0 0.00 0.00 0.49 80 1004.5
20260507113005 49 278 6.0 0.0 0.00 0.00 0.49 80 1004.5
20260507112514 49 278 8.0 0.0 0.00 0.00 0.49 80 1004.4
20260507111506 49 302 7.0 0.0 0.00 0.00 0.49 80 1004.4
20260507110957 49 304 4.0 0.0 0.00 0.00 0.49 81 1004.2
20260507110435 49 291 5.0 0.0 0.00 0.00 0.49 82 1004.2
20260507110023 49 287 8.0 0.0 0.00 0.00 0.49 81 1004.2
20260507105457 48 305 7.0 0.0 0.00 0.00 0.49 82 1004.4
20260507104934 49 299 7.0 0.0 0.00 0.00 0.48 82 1004.4
20260507104518 48 305 6.0 0.0 0.00 0.00 0.48 82 1004.4
20260507103934 48 293 5.0 0.0 0.00 0.00 0.45 83 1004.8
20260507103511 49 296 7.0 0.0 0.00 0.00 0.44 83 1004.8
20260507103030 49 272 7.0 0.0 0.00 0.00 0.13 81 1004.8
20260507102513 49 280 10.0 0.0 0.00 0.00 0.13 79 1004.5
20260507102025 49 266 13.0 0.0 0.00 0.00 0.11 79 1004.5
20260507101518 49 325 15.0 0.0 0.00 0.00 0.11 79 1004.5
20260507101007 49 325 13.0 0.0 0.00 0.00 0.11 78 1004.2
20260507100445 49 308 15.0 0.0 0.00 0.00 0.11 78 1004.2
20260507095936 49 318 17.0 0.0 0.00 0.00 0.11 79 1004.2
20260507095523 49 327 18.0 0.0 0.00 0.00 0.11 78 1004.2
20260507095001 49 325 15.0 0.0 0.00 0.00 0.11 79 1004.2
20260507094451 49 332 14.0 0.0 0.00 0.00 0.11 79 1004.2
20260507094048 49 302 13.0 0.0 0.00 0.00 0.11 80 1004.0
20260507093522 49 303 9.0 0.0 0.00 0.00 0.11 81 1004.0
20260507092933 50 299 10.0 0.0 0.00 0.00 0.11 83 1004.1
20260507092511 50 263 12.0 0.0 0.00 0.00 0.11 83 1003.5
20260507092012 50 322 13.0 0.0 0.00 0.00 0.11 82 1003.5
20260507091453 50 277 14.0 0.0 0.00 0.00 0.10 84 1003.5
20260507090944 50 294 13.0 0.0 0.00 0.00 0.10 85 1003.6
20260507090527 50 309 7.0 0.0 0.00 0.00 0.09 85 1003.6
20260507090014 50 318 0.0 0.0 0.00 0.00 0.09 88 1003.6
20260507085503 50 105 0.0 0.0 0.00 0.00 0.09 89 1003.9
20260507085020 51 105 0.0 0.0 0.00 0.00 0.08 89 1003.9
20260507084457 51 105 0.0 0.0 0.00 0.00 0.07 90 1003.9
20260507083937 51 105 0.0 0.0 0.00 0.00 0.07 90 1003.5
20260507083522 51 105 0.0 0.0 0.00 0.00 0.06 90 1003.5
20260507083000 51 105 0.0 0.0 0.00 0.00 0.05 89 1003.5
20260507082444 51 105 0.0 0.0 0.00 0.00 0.04 89 1003.9
20260507082025 51 105 0.0 0.0 0.00 0.00 0.04 89 1003.9
20260507081453 51 105 0.0 0.0 0.00 0.00 0.03 88 1003.9
20260507081029 51 105 0.0 0.0 0.00 0.00 0.03 88 1003.5
20260507080453 51 105 0.0 0.0 0.00 0.00 0.03 87 1003.5
20260507075930 51 105 0.0 0.0 0.00 0.00 0.02 87 1003.5
20260507075507 51 105 0.0 0.0 0.00 0.00 0.01 86 1003.3
20260507074934 52 105 0.0 0.0 0.00 0.00 0.00 84 1003.3
20260507074529 52 105 0.0 0.0 0.00 0.00 0.00 83 1003.3
20260507074010 52 105 0.0 0.0 0.00 0.00 0.00 86 1002.9
20260507073450 52 105 0.0 0.0 0.00 0.00 0.00 86 1002.9
20260507073021 52 105 0.0 0.0 0.00 0.00 0.00 86 1002.9
20260507072017 53 105 0.0 0.0 0.00 0.00 0.00 86 1002.6
20260507071438 53 105 0.0 0.0 0.00 0.00 0.00 88 1002.6
20260507071006 53 105 0.0 0.0 0.00 0.00 0.00 87 1002.6
20260507070528 53 105 0.0 0.0 0.00 0.00 0.00 87 1002.6
20260507065958 54 105 0.0 0.0 0.00 0.00 0.00 87 1002.6
20260507065527 54 105 0.0 0.0 0.00 0.00 0.00 86 1002.9
20260507065027 54 105 0.0 0.0 0.00 0.00 0.00 86 1002.9
20260507064452 53 105 0.0 0.0 0.00 0.00 0.00 87 1002.9
20260507064048 53 105 0.0 0.0 0.00 0.00 0.00 87 1002.5
20260507062958 54 105 1.0 0.0 0.00 0.00 0.00 87 1002.5
20260507062444 54 105 5.0 0.0 0.00 0.00 0.00 87 1002.7
20260507061932 55 303 7.0 0.0 0.00 0.00 0.00 84 1002.7
20260507061516 55 298 4.0 0.0 0.00 0.00 0.00 86 1002.7
20260507061026 55 303 2.0 0.0 0.00 0.00 0.00 85 1002.9
20260507060436 55 105 0.0 0.0 0.00 0.00 0.00 89 1002.9
20260507055949 55 105 0.0 0.0 0.00 0.00 0.00 89 1002.9
20260507055432 55 105 0.0 0.0 0.00 0.00 0.00 89 1003.0
20260507054938 55 105 0.0 0.0 0.00 0.00 0.00 91 1003.0
20260507054441 55 105 0.0 0.0 0.00 0.00 0.00 88 1003.0
20260507053949 56 105 0.0 0.0 0.00 0.00 0.00 89 1003.0
20260507053436 57 105 0.0 0.0 0.00 0.00 0.00 90 1003.0
20260507052946 58 105 0.0 0.0 0.00 0.00 0.00 91 1003.0
20260507052436 58 105 0.0 0.0 0.00 0.00 0.00 93 1003.0
20260507051949 57 105 0.0 0.0 0.00 0.00 0.00 93 1003.0
20260507051433 57 105 0.0 0.0 0.00 0.00 0.00 93 1003.0
20260507050945 58 105 0.0 0.0 0.00 0.00 0.00 93 1003.0
20260507050434 58 105 0.0 0.0 0.00 0.00 0.00 94 1003.0
20260507045940 57 105 0.0 0.0 0.00 0.00 0.00 94 1003.0
20260507045450 56 105 0.0 0.0 0.00 0.00 0.00 94 1003.0
20260507044937 56 105 0.0 0.0 0.00 0.00 0.00 93 1003.0
20260507044442 56 105 0.0 0.0 0.00 0.00 0.00 92 1003.0
20260507043946 57 105 0.0 0.0 0.00 0.00 0.00 92 1002.6
20260507043438 57 105 0.0 0.0 0.00 0.00 0.00 93 1002.6
20260507042932 57 105 0.0 0.0 0.00 0.00 0.00 93 1002.6
20260507042439 57 105 0.0 0.0 0.00 0.00 0.00 93 1003.0
20260507041942 57 105 0.0 0.0 0.00 0.00 0.00 93 1003.0
20260507041448 57 105 0.0 0.0 0.00 0.00 0.00 93 1003.0
20260507040933 57 105 0.0 0.0 0.00 0.00 0.00 93 1003.1
20260507040444 57 105 0.0 0.0 0.00 0.00 0.00 93 1003.1
20260507040052 57 105 0.0 0.0 0.00 0.00 0.00 93 1003.1
20260507035515 57 105 0.0 0.0 0.00 0.00 0.02 93 1003.0
20260507034949 57 105 0.0 0.0 0.00 0.00 0.02 92 1003.0
20260507034439 57 105 6.0 0.0 0.00 0.00 0.02 92 1003.0
20260507034023 57 105 13.0 0.0 0.00 0.00 0.02 92 1003.0
20260507033456 56 227 16.0 0.0 0.00 0.00 0.02 90 1003.0
20260507033038 56 237 17.0 0.0 0.00 0.00 0.02 90 1003.0
20260507032452 56 221 16.0 0.0 0.00 0.00 0.02 90 1002.8
20260507032027 56 220 16.0 0.0 0.00 0.00 0.02 90 1002.8
20260507031453 56 234 8.0 0.0 0.00 0.00 0.02 89 1002.8
20260507030946 56 105 0.0 0.0 0.00 0.00 0.02 92 1002.5
20260507030517 57 105 0.0 0.0 0.00 0.00 0.02 92 1002.5
20260507030000 56 105 0.0 0.0 0.00 0.00 0.02 92 1002.5
20260507025514 56 105 0.0 0.0 0.00 0.00 0.02 92 1002.7
20260507024947 56 105 0.0 0.0 0.00 0.00 0.02 92 1002.7
20260507024518 56 105 0.0 0.0 0.00 0.00 0.02 92 1002.7
20260507024006 56 105 0.0 0.0 0.00 0.00 0.02 92 1002.5
20260507023522 56 105 0.0 0.0 0.00 0.00 0.02 93 1002.5
20260507022950 56 105 0.0 0.0 0.00 0.00 0.02 93 1002.5
20260507022026 56 105 0.0 0.0 0.00 0.00 0.02 93 1002.6
20260507021445 56 105 0.0 0.0 0.00 0.00 0.02 93 1002.6
20260507021018 56 105 0.0 0.0 0.00 0.00 0.02 93 1002.7
20260507020445 56 105 0.0 0.0 0.00 0.00 0.02 92 1002.7
20260507015946 56 105 7.0 0.0 0.00 0.00 0.02 92 1002.7
20260507015506 56 105 14.0 0.0 0.00 0.00 0.02 90 1003.0
20260507014938 56 225 17.0 0.0 0.00 0.00 0.02 89 1003.0
20260507014520 56 230 18.0 0.0 0.00 0.00 0.02 89 1003.0
20260507013955 56 228 20.0 0.0 0.00 0.00 0.02 89 1003.0
20260507013529 56 225 20.0 0.0 0.00 0.00 0.02 89 1003.0
20260507012949 56 223 21.0 0.0 0.00 0.00 0.02 89 1003.0
20260507012515 56 219 22.0 0.0 0.00 0.00 0.02 89 1003.2
20260507011950 56 224 23.0 0.0 0.00 0.00 0.02 89 1003.2
20260507011525 56 210 23.0 0.0 0.00 0.00 0.02 89 1003.2
20260507010955 56 211 22.0 0.0 0.00 0.00 0.02 89 1003.1
20260507010521 56 224 21.0 0.0 0.00 0.00 0.02 88 1003.1
20260507005514 56 232 4.0 0.0 0.00 0.00 0.02 88 1003.1
20260507004954 56 105 0.0 0.0 0.00 0.00 0.02 91 1003.1
20260507004513 56 105 6.0 0.0 0.00 0.00 0.02 91 1003.1
20260507003449 56 217 17.0 0.0 0.00 0.00 0.02 85 1003.1
20260507003049 56 227 16.0 0.0 0.00 0.00 0.02 85 1003.1
20260507002521 56 210 16.0 0.0 0.00 0.00 0.02 85 1003.1
20260507001956 56 216 16.0 0.0 0.00 0.00 0.02 85 1003.1
20260507001433 56 190 17.0 0.0 0.00 0.00 0.02 84 1003.1
20260507001030 56 231 17.0 0.0 0.00 0.00 0.02 85 1002.9
20260507000444 56 211 18.0 0.0 0.00 0.00 0.02 84 1002.9
20260507000003 56 229 17.0 0.0 0.00 0.00 0.02 84 1002.9
20260506235432 56 226 18.0 0.0 0.00 0.00 0.02 84 1002.7
20260506235010 56 234 20.0 0.0 0.00 0.00 0.02 84 1002.7
20260506234459 56 224 21.0 0.0 0.00 0.00 0.02 84 1002.7
20260506233952 56 264 21.0 0.0 0.00 0.00 0.02 84 1002.7
20260506233522 56 227 21.0 0.0 0.00 0.00 0.02 84 1002.7
20260506232954 56 223 21.0 0.0 0.00 0.00 0.02 84 1002.7
20260506232548 56 0.0 0.0 0.00 0.00 0.02 84 1003.0
20260506232011 56 228 19.0 0.0 0.00 0.00 0.02 84 1003.0
20260506231448 56 221 18.0 0.0 0.00 0.00 0.02 84 1003.0
20260506230951 56 184 18.0 0.0 0.00 0.00 0.02 84 1003.1
20260506230450 56 211 18.0 0.0 0.00 0.00 0.02 84 1003.1
20260506230017 56 225 17.0 0.0 0.00 0.00 0.02 85 1003.1
20260506225503 56 228 17.0 0.0 0.00 0.00 0.02 84 1003.2
20260506224941 56 202 19.0 0.0 0.00 0.00 0.02 85 1003.2
20260506224510 56 199 19.0 0.0 0.00 0.00 0.02 85 1003.2
20260506223951 56 204 18.0 0.0 0.00 0.00 0.02 85 1003.5
20260506223434 56 190 18.0 0.0 0.00 0.00 0.02 84 1003.5
20260506223020 56 219 18.0 0.0 0.00 0.00 0.02 84 1003.5
20260506222457 57 222 18.0 0.0 0.00 0.00 0.02 84 1003.6
20260506221938 57 245 17.0 0.0 0.00 0.00 0.02 84 1003.6
20260506221504 57 218 17.0 0.0 0.00 0.00 0.02 84 1003.6
20260506220940 57 213 14.0 0.0 0.00 0.00 0.02 84 1003.7
20260506220517 57 198 3.0 0.0 0.00 0.00 0.02 89 1003.7
20260506220002 58 104 0.0 0.0 0.00 0.00 0.02 89 1003.7
20260506215534 58 105 0.0 0.0 0.00 0.00 0.02 88 1003.7
20260506214935 58 105 14.0 0.0 0.00 0.00 0.02 88 1003.7
20260506214503 58 221 21.0 0.0 0.00 0.00 0.02 85 1003.7
20260506214012 57 212 20.0 0.0 0.00 0.00 0.02 86 1003.8
20260506213458 57 208 20.0 0.0 0.00 0.00 0.02 86 1003.8
20260506212946 57 205 19.0 0.0 0.00 0.00 0.01 86 1003.8